Change the Weather History Date:

Wednesday, August 20, 2014

  Actual Average (KCLT) Record (KCLT)
Temperature  
Mean Temperature 80 °F 77 °F  
Max Temperature 93 °F 87 °F 103 °F (1925)
Min Temperature 69 °F 67 °F 56 °F (1918)
Degree Days  
Heating Degree Days 0 0  
Month to date heating degree days 0  
Since 1 June heating degree days 3  
Since 1 July heating degree days 0  
Cooling Degree Days 15 12  
Month to date cooling degree days 257  
Year to date cooling degree days 1151  
Since 1 June cooling degree days 988  
Growing Degree Days 30 (Base 50)    
Moisture  
Dew Point 69 °F    
Average Humidity 80    
Maximum Humidity 97    
Minimum Humidity 45    
Precipitation  
Precipitation 0.00 in 0.14 in 1.84 in (1898)
Month to date precipitation 2.76  
Year to date precipitation 27.14  
Snow  
Snow 0.00 in 0.00 in 0.00 in ()
Month to date snowfall 0.0  
Since 1 June snowfall 0.0  
Since 1 July snowfall 0.0  
Snow Depth -    
Sea Level Pressure  
Sea Level Pressure 29.95 in    
Wind  
Wind Speed 1 mph (West)    
Max Wind Speed 9 mph    
Max Gust Speed -    
Visibility 7 miles    
Events      
T = Trace of Precipitation, MM = Missing Value Source: NWS Daily Summary

Daily Weather History Graph

Daily Weather History Graph

Search for Another Location

Airport or City:

Trip Planner

Search our weather history database for the weather conditions in past years. The results will help you decide how hot, cold, wet, or windy it might be!

Date:

Astronomy

Aug. 20, 2014 Rise Set
Actual Time 6:46 AM EDT 8:04 PM EDT
Civil Twilight 6:19 AM EDT 8:31 PM EDT
Nautical Twilight 5:48 AM EDT 9:02 PM EDT
Astronomical Twilight 5:15 AM EDT 9:35 PM EDT
Moon 2:29 AM EDT (8/20) 4:44 PM EDT (8/20)
Length of Visible Light 14h 11m
Length of Day
13h 18m
Waning Crescent, 21% of the Moon is Illuminated
Aug 20
Waning Crescent
Aug 25
New
Sep 2
First Quarter
Sep 8
Full
Sep 15
Last Quarter

Hourly Weather History & Observations

Time (EDT) Temp. Heat Index Dew Point Humidity Pressure Visibility Wind Dir Wind Speed Gust Speed Precip Events Conditions
12:53 AM 71.1 °F - 69.1 °F 93% 29.90 in 5.0 mi Calm Calm - N/A   Clear
1:53 AM 71.1 °F - 69.1 °F 93% 29.90 in 5.0 mi Calm Calm - N/A   Clear
2:53 AM 71.1 °F - 69.1 °F 93% 29.91 in 6.0 mi Calm Calm - N/A   Clear
3:25 AM 70.0 °F - 69.1 °F 97% 29.92 in 2.5 mi Calm Calm - N/A   Clear
3:40 AM 69.1 °F - 68.0 °F 96% 29.92 in 1.2 mi Calm Calm - N/A   Partly Cloudy
3:46 AM 70.0 °F - 68.0 °F 93% 29.92 in 3.0 mi Calm Calm - N/A   Clear
3:53 AM 70.0 °F - 68.0 °F 93% 29.92 in 3.0 mi Calm Calm - N/A   Clear
4:17 AM 69.1 °F - 68.0 °F 96% 29.91 in 2.0 mi Calm Calm - N/A   Partly Cloudy
4:21 AM 69.1 °F - 68.0 °F 96% 29.91 in 1.0 mi Calm Calm - N/A   Mist
4:29 AM 70.0 °F - 68.0 °F 93% 29.91 in 0.8 mi Calm Calm - N/A   Mist
4:32 AM 69.1 °F - 68.0 °F 96% 29.91 in 1.2 mi Calm Calm - N/A   Partly Cloudy
4:35 AM 69.1 °F - 68.0 °F 96% 29.91 in 3.0 mi Calm Calm - N/A   Partly Cloudy
4:53 AM 69.1 °F - 68.0 °F 96% 29.91 in 2.0 mi Calm Calm - N/A   Clear
5:00 AM 69.1 °F - 68.0 °F 96% 29.92 in 1.2 mi Calm Calm - N/A   Clear
5:08 AM 70.0 °F - 68.0 °F 93% 29.92 in 4.0 mi Calm Calm - N/A   Clear
5:53 AM 70.0 °F - 68.0 °F 93% 29.93 in 10.0 mi Calm Calm - N/A   Clear
6:53 AM 70.0 °F - 68.0 °F 93% 29.95 in 9.0 mi Calm Calm - N/A   Clear
7:53 AM 72.0 °F - 69.1 °F 91% 29.97 in 10.0 mi NNW 3.5 mph - N/A   Clear
8:53 AM 75.9 °F - 70.0 °F 82% 29.99 in 10.0 mi NNW 3.5 mph - N/A   Clear
9:53 AM 81.0 °F 85.2 °F 72.0 °F 74% 30.00 in 10.0 mi Variable 4.6 mph - N/A   Clear
10:53 AM 84.0 °F 89.6 °F 72.0 °F 67% 30.02 in 10.0 mi North 5.8 mph - N/A   Clear
11:53 AM 86.0 °F 91.5 °F 71.1 °F 61% 30.01 in 10.0 mi East 5.8 mph - N/A   Clear
12:53 PM 90.0 °F 95.4 °F 70.0 °F 52% 30.01 in 10.0 mi Calm Calm - N/A   Scattered Clouds
1:53 PM 87.1 °F 92.0 °F 70.0 °F 57% 29.99 in 10.0 mi Calm Calm - N/A   Partly Cloudy
2:53 PM 91.0 °F 95.6 °F 69.1 °F 48% 29.98 in 10.0 mi SW 8.1 mph - N/A   Scattered Clouds
3:53 PM 91.9 °F 96.9 °F 69.1 °F 47% 29.98 in 10.0 mi West 9.2 mph - N/A   Partly Cloudy
4:53 PM 91.9 °F 96.9 °F 69.1 °F 47% 29.96 in 10.0 mi SW 8.1 mph - N/A   Clear
5:53 PM 91.0 °F 94.3 °F 66.9 °F 45% 29.96 in 10.0 mi WNW 6.9 mph - N/A   Clear
6:53 PM 89.1 °F 92.9 °F 68.0 °F 50% 29.96 in 10.0 mi West 4.6 mph - N/A   Clear
7:53 PM 82.9 °F 87.0 °F 70.0 °F 65% 29.97 in 10.0 mi Calm Calm - N/A   Clear
8:53 PM 80.1 °F 83.6 °F 71.1 °F 74% 30.00 in 10.0 mi West 3.5 mph - N/A   Clear
9:53 PM 79.0 °F - 71.1 °F 77% 30.02 in 10.0 mi Calm Calm - N/A   Clear
10:53 PM 79.0 °F - 72.0 °F 79% 30.03 in 10.0 mi West 4.6 mph - N/A   Clear
11:53 PM 77.0 °F - 72.0 °F 84% 30.02 in 10.0 mi SW 4.6 mph - N/A   Clear